SPACEBEE-42 (47455 NORAD) Tracking and Keplerian Element Data

This shows tracking and keplerian element data for the satellite.

Feedback or suggestion? Click here.




ElementValue
Catalog47455
NameSPACEBEE-42
Epoch Orbit1199
Epoch Day101.92354537
Epoch Year2021
RAAN164.2952
Inclination97.4932
Eccentricity0.0010486
Argument of Perigee340.6062
Mean Anonmoly19.4768
Mean Motion15.13043246
Decay Rate2.58E-05
L11 47455U 21006AU 21101.92354537 .00002580 00000-0 14952-3 0 9996
L22 47455 97.4932 164.2952 0010486 340.6062 19.4768 15.13043246 11994

Live tracking and technical data element details for SPACEBEE-42 (NORAD 47455). SPACEBEE-42 can be tracked NOW for your location showing map with azimuth and elevation plus other details from your city location.

Track the satellite on the map from your city or location and see movement details for azimuth, elevation, latitude, longitude, range, height, and movement on the map or in text.







IsCatalogInMostPopularTable: catalog: 47455, numindb: 14
Update: records affected: 1



GetName: 47455 SPACEBEE-42

Hit Count: updated at: Tue, 13 Apr 2021 05:16:14 GMT